カタログに戻る

FREJA

運用中科学LEO
NORAD 22161·PAYLOAD·🇸🇪 Sweden

打ち上げ Oct 6, 1992 から Jiuquan Satellite Launch Center

Loading…

次のパス (今後24時間)

TLE

最新Source: Space-Track

元期: Sep 14, 2026, 06:08 UTC

1 22161U 92064A   26257.25563112  .00000094  00000-0  90697-4 0  9998
2 22161  63.0021  12.8779 0725287 248.6635 103.5515 13.32874755645836

AllMySatでFREJAをリアルタイム追跡

Download on the App Store